Home   Weather   Port Hedland   Past weeks

Flag for Australia Past Weather in Port Hedland, Western Australia, Australia — Yesterday and Last 2 Weeks

Now
79 °F

Clear.


Feels Like: 80 °F
Forecast: 75 / 89 °F
Wind: 9 mph from Southeast

Location: Port Hedland Pardoo

Current Time: Apr 26, 2017 at 9:54:43 pm

Latest Report: Apr 26, 2017 at 9:00 pm


Visibility: N/A

Pressure: 30.01 "Hg

Humidity: 58%

Dew Point: 63 °F

Location of Port HedlandLocation

Past Weather in Port Hedland — Graph

°F

Port Hedland Temperature Yesterday

Maximum temperature yesterday: 90 °F (at 10:30 am)
Minimum temperature yesterday: 75 °F (at 2:30 am)
Average temperature yesterday: 81 °F

High & Low Weather Summary for the Past Weeks

 TemperatureHumidityPressure
High97 °F (Apr 14, 1:30 pm)100% (Apr 17, 9:30 pm)30.01 "Hg (Apr 17, 9:30 pm)
Low63 °F (Apr 13, 4:30 am)9% (Apr 13, 4:00 pm)29.74 "Hg (Apr 18, 3:30 pm)
Average80 °F69%29.89 "Hg
* Reported Apr 11 8:00 pm — Apr 26 8:00 pm, Port Hedland, Weather by CustomWeather, © 2017

Note: Actual official high and low records may vary slightly from our data, if they occured in-between our weather recording intervals... More about our weather records

Advertising

Port Hedland Weather History for the Previous 24 Hours

Scroll right to see more
 ConditionsComfort  
Time TempWeatherWind HumidityBarometerVisibility
8:00 pm
Wed, Apr 26
81 °FClear.9 mph51%30.01 "HgN/A
7:30 pm82 °FClear.9 mph48%29.98 "HgN/A
7:00 pm82 °FClear.8 mph48%29.98 "HgN/A
6:30 pm82 °FClear.8 mph48%29.95 "HgN/A
5:30 pm84 °FSunny.10 mph45%29.95 "HgN/A
5:00 pm86 °FSunny.12 mph43%29.92 "HgN/A
4:30 pm86 °FSunny.10 mph43%29.92 "HgN/A
4:00 pm86 °FSunny.13 mph43%29.92 "HgN/A
3:30 pm88 °FSunny.13 mph40%29.92 "HgN/A
3:00 pm86 °FSunny.14 mph43%29.92 "HgN/A
2:30 pm86 °FSunny.13 mph43%29.92 "HgN/A
2:00 pm88 °FSunny.13 mph43%29.92 "HgN/A
1:30 pm88 °FSunny.14 mph43%29.92 "HgN/A
1:00 pm88 °FSunny.14 mph43%29.92 "HgN/A
12:30 pm88 °FSunny.15 mph43%29.92 "HgN/A
12:00 pm86 °FSunny.15 mph46%29.95 "HgN/A
11:30 am84 °FSunny.16 mph48%29.95 "HgN/A
11:00 am84 °FSunny.17 mph48%29.98 "HgN/A
10:30 am82 °FSunny.17 mph51%30.01 "HgN/A
10:00 am82 °FSunny.13 mph51%30.01 "HgN/A
9:30 am81 °FSunny.14 mph58%30.01 "HgN/A
9:00 am81 °FSunny.15 mph58%30.01 "HgN/A
8:30 am79 °FSunny.13 mph61%30.01 "HgN/A
8:00 am79 °FSunny.9 mph65%29.98 "HgN/A
7:30 am79 °FSunny.9 mph61%29.98 "HgN/A
7:00 am77 °FSunny.7 mph69%29.98 "HgN/A
6:30 am77 °FSunny.8 mph69%29.95 "HgN/A
6:00 am79 °FClear.10 mph61%29.95 "HgN/A
5:30 am79 °FClear.9 mph70%29.95 "HgN/A
5:00 am79 °FClear.8 mph70%29.95 "HgN/A
4:30 am79 °FClear.8 mph70%29.95 "HgN/A
4:00 am81 °FClear.9 mph66%29.95 "HgN/A
3:30 am81 °FClear.10 mph66%29.95 "HgN/A
3:00 am81 °FClear.10 mph70%29.95 "HgN/A
2:30 am81 °FClear.9 mph70%29.95 "HgN/A
2:00 am79 °FClear.8 mph79%29.95 "HgN/A
1:30 am79 °FClear.7 mph79%29.95 "HgN/A
1:00 am79 °FClear.7 mph79%29.95 "HgN/A
12:30 am79 °FClear.8 mph79%29.95 "HgN/A
12:00 am79 °FClear.6 mph79%29.95 "HgN/A
11:00 pm
Tue, Apr 25
77 °FClear.6 mph89%29.95 "HgN/A
10:30 pm79 °FClear.5 mph79%29.95 "HgN/A
10:00 pm81 °FClear.6 mph74%29.95 "HgN/A
9:30 pm81 °FClear.5 mph74%29.95 "HgN/A
9:00 pm81 °FClear.7 mph74%29.95 "HgN/A
Weather by CustomWeather, © 2017

See weather overviewHow to use our weather pages